CAPE
203 213 344 341 315 222 199 315 555 728 826 903 804 616 679 877 923 886 700 475 244 124 43 5 2 0 0 0 0 0 0 0
122 111 203 163 141 83 91 191 323 476 570 584 458 445 576 621 614 665 491 232 107 49 6 0 0 0 0 0 0 0 0 0
128 125 102 39 19 44 69 139 170 281 401 358 264 232 364 460 324 407 263 37 17 0 0 0 0 0 0 0 0 0 0 0
95 107 102 77 63 20 1 34 31 32 92 100 12 11 68 170 195 239 108 0 0 0 0 0 0 0 0 0 0 0 0 0
166 137 87 59 69 23 2 19 2 0 2 2 1 1 54 76 4 53 1 0 0 0 0 0 0 0 0 0 0 0 0 0
54 73 74 75 81 37 1 2 1 1 0 1 1 0 0 0 0 0 0 0 0 0 0 0 0 0 0 0 0 0 0 0
4 56 79 75 72 37 12 1 2 1 1 0 0 1 0 0 0 0 0 1 0 0 0 0 0 0 0 0 0 0 0 0
0 21 58 54 49 52 16 0 0 1 1 1 0 0 0 1 1 0 0 1 0 0 0 0 0 0 0 0 0 0 0 0
0 0 15 27 21 42 17 8 2 2 1 0 0 0 0 0 0 0 0 0 0 0 0 0 0 0 0 0 0 0 0 0
0 0 2 2 16 7 1 1 1 1 1 0 0 0 0 0 0 0 0 0 0 0 0 0 0 0 0 0 0 0 0 0
0 0 1 2 1 1 0 0 0 0 0 0 0 0 0 0 0 0 0 0 0 0 0 0 0 0 0 0 0 0 0 0
0 0 0 2 0 0 0 0 0 0 0 0 0 0 0 0 0 0 0 0 0 0 0 0 0 0 0 0 0 0 0 0
0 0 0 0 0 0 0 0 0 0 0 0 0 0 0 0 0 0 0 0 0 0 0 0 0 0 0 0 0 0 0 0
19 0 0 0 0 0 0 0 0 0 0 0 0 0 0 0 0 0 0 0 0 0 0 0 0 0 0 0 0 0 0 0
74 45 0 0 0 0 0 0 0 0 0 0 0 0 0 0 0 0 0 0 0 0 0 0 0 0 0 0 0 0 0 0
135 93 26 0 0 0 0 0 0 0 0 0 0 0 0 0 0 0 0 0 0 0 0 0 0 0 0 0 0 0 0 0
40 159 104 30 0 0 0 0 0 0 0 0 0 0 0 0 0 0 0 0 0 0 0 0 0 0 0 0 0 0 0 0
0 48 172 173 47 0 0 0 0 0 0 0 0 0 0 0 0 0 0 0 0 0 0 0 0 0 0 0 0 0 0 0
0 0 156 305 256 87 7 0 0 0 0 7 14 0 0 0 0 0 0 0 0 0 0 0 0 0 0 0 0 0 0 0
0 0 1 319 434 393 238 164 116 27 32 101 135 78 39 11 0 0 0 0 0 0 0 0 0 0 0 0 0 0 0 0
CIN
-430 -346 -227 -204 -200 -218 -218 -175 -129 -102 -76 -64 -52 -73 -64 -40 -33 -29 -56 -111 -188 -241 -291 -69 -80 0 0 0 0 0 0 0
-537 -464 -334 -306 -294 -316 -291 -227 -181 -147 -131 -128 -153 -140 -90 -73 -71 -62 -112 -186 -224 -274 -371 0 0 0 0 0 0 0 0 0
-605 -525 -466 -460 -450 -384 -318 -256 -241 -191 -151 -174 -211 -220 -164 -126 -162 -128 -163 -294 -206 0 0 0 0 0 0 0 0 0 0 0
-720 -630 -553 -486 -421 -440 -115 -364 -362 -352 -281 -262 -134 -238 -293 -224 -203 -179 -235 0 0 0 0 0 0 0 0 0 0 0 0 0
-703 -681 -663 -609 -509 -492 -180 -383 -408 0 -72 -105 0 0 -277 -254 -46 -274 -9 0 0 0 0 0 0 0 0 0 0 0 0 0
-871 -781 -736 -671 -585 -586 0 0 0 0 0 0 0 0 0 0 0 0 0 0 0 0 0 0 0 0 0 0 0 0 0 0
-609 -850 -764 -734 -684 -687 -686 0 0 0 0 0 0 0 0 0 0 0 0 0 0 0 0 0 0 0 0 0 0 0 0 0
0 -868 -816 -791 -791 -751 -791 -37 -1 0 0 0 0 0 0 0 0 0 0 0 0 0 0 0 0 0 0 0 0 0 0 0
0 0 -837 -840 -843 -792 -859 -831 0 0 0 0 0 0 0 0 0 0 0 0 0 0 0 0 0 0 0 0 0 0 0 0
0 0 0 0 -849 -564 0 0 0 0 0 0 0 0 0 0 0 0 0 0 0 0 0 0 0 0 0 0 0 0 0 0
0 0 0 0 -56 -322 0 0 0 0 0 0 0 0 0 0 0 0 0 0 0 0 0 0 0 0 0 0 0 0 0 0
0 0 0 -579 0 0 0 0 0 0 0 0 0 0 0 0 0 0 0 0 0 0 0 0 0 0 0 0 0 0 0 0
0 0 0 0 0 0 0 0 0 0 0 0 0 0 0 0 0 0 0 0 0 0 0 0 0 0 0 0 0 0 0 0
-804 0 0 0 0 0 0 0 0 0 0 0 0 0 0 0 0 0 0 0 0 0 0 0 0 0 0 0 0 0 0 0
-625 -758 0 0 0 0 0 0 0 0 0 0 0 0 0 0 0 0 0 0 0 0 0 0 0 0 0 0 0 0 0 0
-532 -584 -708 0 0 0 0 0 0 0 0 0 0 0 0 0 0 0 0 0 0 0 0 0 0 0 0 0 0 0 0 0
-465 -496 -556 -642 0 0 0 0 0 0 0 0 0 0 0 0 0 0 0 0 0 0 0 0 0 0 0 0 0 0 0 0
0 -377 -514 -568 -674 -192 0 0 0 0 0 0 0 0 0 0 0 0 0 0 0 0 0 0 0 0 0 0 0 0 0 0
0 0 -494 -498 -547 -669 -794 0 0 0 0 -512 -729 0 0 0 0 0 0 0 0 0 0 0 0 0 0 0 0 0 0 0
0 0 -39 -416 -434 -501 -588 -678 -703 -760 -740 -696 -713 -734 -746 -676 0 0 0 0 0 0 0 0 0 0 0 0 0 0 0 0
Wind_Speed
12 10 11 12 12 14 13 13 14 14 14 15 13 11 11 10 11 11 11 11 11 12 11 11 10 8 6 5 2 2 3 3
14 9 9 8 8 11 13 13 12 13 14 14 14 13 12 11 11 11 11 11 11 11 10 10 9 8 6 3 1 1 2 3
14 10 9 8 7 8 11 13 12 11 11 12 11 6 7 9 8 10 10 9 10 9 9 8 7 5 2 0 1 1 2 2
15 12 11 10 7 7 6 6 5 5 5 6 4 5 5 6 7 10 10 9 9 9 9 7 5 2 1 0 1 2 2 3
14 12 11 12 8 7 5 4 5 4 5 6 5 4 5 5 3 3 4 7 4 4 4 3 4 3 2 2 2 2 2 2
13 13 12 13 8 8 9 8 8 7 8 6 5 5 7 6 5 6 5 3 5 4 3 4 4 3 3 3 4 3 2 2
13 14 15 15 13 9 10 9 9 8 9 8 6 5 8 7 6 6 6 3 4 4 4 4 4 4 4 4 4 5 5 3
9 13 14 16 15 12 10 9 8 8 9 10 9 7 6 5 5 7 6 4 3 4 4 4 4 3 5 5 5 4 5 5
12 12 14 17 18 14 10 9 10 10 9 10 11 9 8 8 5 5 5 4 5 3 3 2 3 3 6 4 4 5 5 6
14 12 16 17 16 12 9 9 9 8 7 7 11 10 10 7 6 6 4 4 4 3 3 3 4 3 4 4 4 4 6 6
15 16 15 16 13 9 9 9 8 8 7 7 10 11 11 9 8 6 6 5 6 5 4 4 4 4 4 5 5 6 7 7
17 16 15 14 9 6 6 6 8 7 8 9 11 10 11 10 7 7 8 6 5 4 6 4 4 4 4 6 5 6 5 7
18 18 18 13 12 12 11 12 9 8 9 12 12 12 12 12 8 7 8 9 10 9 5 6 4 3 1 3 4 9 10 10
20 20 20 19 14 12 9 9 9 9 9 11 14 15 14 13 13 10 11 8 8 9 9 3 4 6 3 1 4 5 3 7
21 23 22 20 21 12 6 3 2 7 10 12 15 16 16 16 15 12 12 11 10 10 11 11 7 4 7 4 1 5 3 2
21 21 22 21 21 16 21 17 14 14 14 11 12 16 18 17 16 15 13 11 13 11 10 10 9 7 3 8 4 4 3 7
15 20 20 21 20 22 18 17 15 10 9 12 14 13 18 17 17 16 16 12 14 14 11 13 10 9 7 4 7 7 3 8
14 17 22 21 21 24 23 24 21 14 12 12 12 12 12 17 18 17 16 15 15 13 13 14 14 11 10 9 9 5 7 7
16 14 20 20 22 23 25 24 22 20 17 14 13 11 11 17 18 17 14 16 14 12 12 12 13 12 14 12 9 12 10 5
25 22 10 14 17 20 19 20 13 14 14 11 12 13 12 11 14 14 15 12 12 11 10 11 12 12 16 13 10 10 9 10
Wind_Direction
162 161 165 159 151 148 148 152 150 148 145 141 140 139 137 134 133 136 136 140 144 145 147 151 156 165 169 174 168 110 111 176
168 160 159 158 157 153 152 154 154 155 153 150 148 150 150 148 150 152 153 154 155 155 160 165 168 173 177 179 50 10 210 225
173 166 159 154 149 164 159 159 159 159 161 157 150 153 156 159 162 165 165 164 164 163 168 170 167 171 175 344 344 277 266 238
178 173 165 159 162 160 154 165 163 159 154 157 149 147 154 159 166 173 174 174 178 176 176 177 168 167 196 328 239 272 275 274
177 173 169 169 173 169 166 164 166 162 161 157 151 145 167 173 161 176 173 185 181 181 188 191 190 182 199 228 259 270 272 273
180 178 176 184 176 176 178 179 181 186 190 163 161 171 184 187 189 192 190 176 186 191 194 199 215 223 219 235 249 259 274 281
189 182 185 188 189 179 181 185 186 183 189 184 166 171 186 186 191 192 202 181 185 197 207 213 228 238 244 236 245 252 259 269
202 197 189 190 191 189 187 183 182 183 191 193 179 176 176 184 179 195 203 196 182 191 206 223 242 242 265 256 254 253 262 263
201 201 200 198 198 191 189 187 185 192 194 187 185 180 180 180 188 197 201 181 182 190 211 221 256 260 262 264 269 263 248 248
183 198 204 204 202 195 189 188 190 191 188 187 187 188 182 176 188 200 184 174 185 189 192 220 235 232 264 268 268 272 271 264
186 195 201 206 206 196 193 190 192 193 184 187 195 193 190 190 194 193 173 187 197 199 207 198 208 229 243 259 259 259 264 267
184 188 194 192 196 192 197 190 202 196 197 197 189 197 194 195 198 185 177 188 200 193 204 196 202 213 244 260 254 255 246 246
198 188 188 182 193 194 202 205 202 201 201 201 198 197 193 195 201 189 193 199 204 200 195 202 225 148 16 300 265 245 248 244
199 200 192 192 195 203 205 199 214 210 204 204 201 198 197 198 201 198 196 202 202 191 194 185 210 171 180 140 301 313 270 236
203 202 198 198 201 186 181 164 171 199 210 209 209 200 199 202 204 203 199 202 208 201 198 198 211 190 196 173 217 240 314 306
214 207 201 203 194 193 195 200 207 218 216 214 208 203 203 203 204 203 200 201 210 205 198 203 200 203 198 231 247 155 229 309
226 214 209 203 196 199 198 204 214 213 215 216 210 203 207 205 205 202 205 206 213 209 196 200 203 213 201 157 221 227 200 236
292 227 214 204 198 201 203 209 209 204 202 206 210 204 204 209 205 207 207 208 208 205 201 199 205 211 216 203 206 185 205 204
343 293 220 207 204 201 206 211 211 211 203 202 199 211 208 211 206 205 206 211 209 205 204 206 204 207 209 218 213 226 229 203
8 356 287 209 211 215 216 214 213 221 216 210 207 202 211 204 206 214 217 213 208 197 202 212 210 213 215 215 218 222 219 219